User: anonymous   Login
Location: ????
(55.5675°N, 37.6272°E)
Time: 23:20:43
(UTC+00:00)
Language:

Nadezhda 4 Rocket - Orbit

View from above orbital plane
View from above orbital plane
View from above satellite
View from above satellite

Ground track
Ground track

The orbit is defined by the following mean orbital elements,

1 23180U          26159.15548316 +.00000000 +00000-0 -32349-5 0 00000
2 23180  82.9473  11.4186 0029594  34.3628  84.4779 13.78302562    01
Epoch (UTC): 08 June 2026 03:43:53
Eccentricity: 0.0029594
inclination: 82.9473°
perigee height: 948 km
apogee height: 992 km
right ascension of ascending node: 11.4186°
argument of perigee: 34.3628°
revolutions per day: 13.78302562
mean anomaly at epoch: 84.4779°

The dashed part of the orbit path shows where the satellite is in the earth's shadow,  

DLR